Location: Pian di Sc�
(43.6333°N, 11.5500°E)
Time: 18:13:47
(UTC+00:00)

Cosmos 1626 - Pass Details

Date: 07 August 2020
Orbit: 491 x 494 km, 82.5° (Epoch: 17 September)

Event Time Altitude Azimuth Distance (km) Brightness Sun altitude
Rises 00:58:32 0° 2° (N) 2,589 6.8 -25.9°
Reaches altitude 10° 01:00:52 10° 13° (NNE) 1,702 5.8 -25.7°
Maximum altitude 01:04:09 29° 75° (ENE) 939 3.8 -25.4°
Enters shadow 01:04:31 28° 87° (E) 952 3.7 -25.4°
